This is the latest recevied weather packets stored in our database for station/object KD7AWQ. If no packets are shown the sender has not sent any weather packets the latest 10 day(s).
| Time | Temp. | Humidity | Pressure | Rain* | Wind** | Luminosity | Snow |
|---|---|---|---|---|---|---|---|
| 1777749863 | 21.11° C | 34% | 1187.3 hPa | 0 mm | - | 1086 W/m² | - |
| 1777749560 | 20.56° C | 36% | 1187.7 hPa | 0 mm | - | 1086 W/m² | - |
| 1777749258 | 20.56° C | 36% | 1187.9 hPa | 0 mm | - | 1084 W/m² | - |
| 1777748955 | 20.56° C | 36% | 1187.9 hPa | 0 mm | - | 1083 W/m² | - |
| 1777748652 | 20.56° C | 36% | 1187.9 hPa | 0 mm | - | 1083 W/m² | - |
| 1777748348 | 20.56° C | 36% | 1188.1 hPa | 0 mm | - | 1079 W/m² | - |
| 1777748044 | 21.11° C | 35% | 1187.9 hPa | 0 mm | - | 1080 W/m² | - |
| 1777747133 | 20° C | 38% | 1188.3 hPa | 0 mm | - | 1065 W/m² | - |
| 1777745917 | 20° C | 38% | 1188.7 hPa | 0 mm | - | 1042 W/m² | - |
| 1777744700 | 19.44° C | 39% | 1188.7 hPa | 0 mm | - | 1007 W/m² | - |
| 1777744092 | 19.44° C | 39% | 1188.9 hPa | 0 mm | - | 988 W/m² | - |
| 1777742881 | 18.89° C | 40% | 1188.7 hPa | 0 mm | - | 945 W/m² | - |
| 1777742273 | 18.89° C | 40% | 1188.7 hPa | 0 mm | - | 922 W/m² | - |
| 1777740453 | 18.33° C | 41% | 1188.4 hPa | 0 mm | - | 837 W/m² | - |
| 1777739846 | 18.33° C | 42% | 1188.4 hPa | 0 mm | - | 801 W/m² | - |
| 1777739240 | 17.78° C | 42% | 1188.3 hPa | 0 mm | - | 768 W/m² | - |
| 1777738937 | 17.78° C | 42% | 1188.6 hPa | 0 mm | - | 749 W/m² | - |
| 1777738634 | 18.33° C | 41% | 1188.4 hPa | 0 mm | - | 732 W/m² | - |
| 1777738029 | 18.33° C | 42% | 1188.4 hPa | 0 mm | - | 694 W/m² | - |
| 1777736189 | 17.78° C | 43% | 1188.3 hPa | 0 mm | - | 574 W/m² | - |
| 1777735886 | 17.22° C | 43% | 1187.8 hPa | 0 mm | - | 551 W/m² | - |
| 1777735584 | 17.22° C | 44% | 1188.1 hPa | 0 mm | - | 530 W/m² | - |
| 1777735281 | 17.22° C | 45% | 1188 hPa | 0 mm | - | 510 W/m² | - |
| 1777734978 | 17.22° C | 45% | 1188 hPa | 0 mm | - | 487 W/m² | - |
| 1777734675 | 17.22° C | 45% | 1187.8 hPa | 0 mm | - | 465 W/m² | - |
* Rain latest hour (hover to see other rain measurements)
** Current wind speed in m/s (hover to see current wind gust speed)